Back to catalog

GNOMES-1

AliveWeatherSSO
NORAD 46266·PAYLOAD·🇺🇸 United States

Launched Aug 30, 2020 from Cape Canaveral Space Force Station

Loading…

Next Passes (next 24 hours)

TLE

FreshSource: Space-Track

Epoch: Sep 14, 2026, 10:00 UTC

1 46266U 20059B   26257.41714627  .00001856  00000-0  15092-3 0  9994
2 46266  97.7974 108.0120 0012258  85.7591 274.5033 15.00765143328979

Track GNOMES-1 in real time with AllMySat

Download on the App Store